AirNav   Pilot Hours Calculator
 
 684 users online  

62C Cindy Guntly Memorial Airport
Franksville, Wisconsin, USA

GOING TO FRANKSVILLE?


FAA INFORMATION EFFECTIVE 22 APRIL 2021

Location

FAA Identifier: 62C
Lat/Long: 42-48-39.3800N 088-05-38.5300W
42-48.656333N 088-05.642167W
42.8109389,-88.0940361
(estimated)
Elevation: 790 ft. / 241 m (estimated)
Variation: 01W (1985)
From city: 7 miles NW of FRANKSVILLE, WI
Time zone: UTC -5 (UTC -6 during Standard Time)
Zip code: 53126

Airport Operations

Airport use: Open to the public
Activation date: 03/1962
Control tower: no
ARTCC: CHICAGO CENTER
FSS: GREEN BAY FLIGHT SERVICE STATION
NOTAMs facility: GRB (NOTAM-D service available)
Attendance: MON-FRI 0830-1800, ALL SAT 1100-1800
Wind indicator: yes
Segmented circle: no
Lights: ACTVT LIRL RY 01/19 - CTAF.

Airport Communications

CTAF: 122.9
WX AWOS-3 at BUU (12 nm SW): 125.275 (262-757-0907)
WX ASOS at MKE (12 nm NE): 126.4 (414-489-2168)
WX AWOS-3PT at 57C (12 nm W): 118.125 (262-642-1845)
WX ASOS at RAC (13 nm E): 121.425 (262-635-0959)
WX ASOS at ENW (15 nm SE): PHONE 262-652-7730
WX AWOS-3 at UES (15 nm NW): 118.875 (262-521-5226)
WX AWOS-3 at MWC (18 nm N): PHONE 414-461-2954

Nearby radio navigation aids

VOR radial/distance  VOR name  Freq  Var
BAEr154/20.2BADGER VOR/DME116.4002E
OBKr352/35.9NORTHBROOK VOR/DME113.0002W
BJBr179/(36.7)WEST BEND VOR109.8001W

 
NDB name  Hdg/Dist  Freq  Var  ID
ROCK RIVER129/35.237101WRYV .-. -.-- ...-

Airport Services

Fuel available: 100LL UL94
Parking: tiedowns
Airframe service: MAJOR
Powerplant service: MAJOR
Bottled oxygen: NONE
Bulk oxygen: NONE

Runway Information

Runway 1/19

Dimensions: 2425 x 70 ft. / 739 x 21 m
Surface: turf, in fair condition
Runway edge lights: non-standard
RY 01/19 NSTD LIRL HAS 2 PAIRS OF LGTS EACH END.
RUNWAY 1  RUNWAY 19
Latitude: 42-48.482333N42-48.874167N
Longitude: 088-05.704833W088-05.600500W
Elevation: 777.0 ft.782.0 ft.
Traffic pattern: leftleft
Runway heading: 012 magnetic, 011 true192 magnetic, 191 true
Obstructions: 55 ft. tree, 875 ft. from runway, 150 ft. right of centerline, 16:1 slope to clear40 ft. trees, 100 ft. left and right of centerline

Runway 18/36

Dimensions: 1200 x 80 ft. / 366 x 24 m
Surface: turf, in fair condition
ROUGH & UNDULATING ROLLING TERRAIN.
RUNWAY 18  RUNWAY 36
Latitude: 42-48.710167N42-48.512667N
Longitude: 088-05.616333W088-05.625667W
Elevation: 776.0 ft.790.0 ft.
Traffic pattern: leftleft
Runway heading: 183 magnetic, 182 true003 magnetic, 002 true
Obstructions: 64 ft. trees, 900 ft. from runway, 150 ft. right of centerline, 14:1 slope to clear29 ft. trees, 500 ft. from runway, 150 ft. right of centerline, 17:1 slope to clear

Airport Ownership and Management from official FAA records

Ownership: Privately-owned
Owner: THOMAS GUNTLY
22031 SIX MILE RD
FRANKSVILLE, WI 53126
Phone 262-895-2948
Manager: THOMAS GUNTLY
22031 SIX MILE RD
CALEDONIA, WI 53108
Phone 262-895-2948
EMAIL ADDRESS: AOLDPILOT@GMAIL.COM (ALL LOWER CASE)

Airport Operational Statistics

Aircraft based on the field: 44
Single engine airplanes: 40
Multi engine airplanes: 1
Helicopters: 2
Ultralights: 1
    
Aircraft operations: avg 128/week *
78% local general aviation
22% transient general aviation
* for 12-month period ending 02 May 2019

Additional Remarks

RY 18 & 19 GND DROPS OFF RAPIDLY AT 'S' END.
FOR CD CTC CHICAGO ARTCC AT 630-906-8921.

Instrument Procedures

There are no published instrument procedures at 62C.

Some nearby airports with instrument procedures:

KBUU - Burlington Municipal Airport (12 nm SW)
KMKE - General Mitchell International Airport (12 nm NE)
57C - East Troy Municipal Airport (12 nm W)
KRAC - Batten International Airport (13 nm E)
KENW - Kenosha Regional Airport (15 nm SE)
KUES - Waukesha County Airport (15 nm NW)
C02 - Grand Geneva Resort Airport (18 nm SW)
KMWC - Lawrence J Timmerman Airport (18 nm N)
 
Loc | Ops | Rwys | IFR | FBO | Links
Com | Nav | Svcs | Stats | Notes
Area around 62C (Cindy Guntly Memorial Airport)
 
Road maps at: MapQuest Bing Google
 
Aerial photo
WARNING: Photo may not be current or correct
Aerial photo of 62C (Cindy Guntly Memorial Airport)
Photo by Amy Gesch
Photo taken 17-Oct-2005

Do you have a better or more recent aerial photo of Cindy Guntly Memorial Airport that you would like to share? If so, please send us your photo.

 
Sectional chart

 
Airport distance calculator
Flying to Cindy Guntly Memorial Airport? Find the distance to fly.

From to 62C

Sunrise and sunset
Times for 22-Apr-2021
 Local
(UTC-5)
 Zulu
(UTC)
Morning civil twilight05:3110:31
Sunrise06:0111:01
Sunset19:4100:41
Evening civil twilight20:1101:11

Current date and time
Zulu (UTC)  22-Apr-2021 11:18:17
Local (UTC-5)  22-Apr-2021 06:18:17
 
METAR
KBUU 
12nm SW 
221055Z AUTO 21005KT 5SM M04/M04 A3008 RMK AO2 T10421045 PWINO
KMKE 
12nm NE 
221052Z 27004KT 10SM FEW035 00/M04 A3007 RMK AO2 SLP190 T00001044
K57C 
12nm W 
221055Z AUTO 26003KT 5SM BR CLR M04/M04 A3007 RMK AO2 T10371037
KUES 
12nm N 
221045Z 00000KT 10SM CLR M05/M07 A3007
KRAC 
12nm E 
221053Z AUTO 27004KT 6SM BR CLR M01/M03 A3009 RMK AO2 SLP196 T10111028
KENW 
15nm SE 
221053Z AUTO 26005KT 5SM BR CLR M03/M05 A3008 RMK AO2 SLP193 T10331050
KMWC 
19nm N 
221055Z AUTO 24003KT 10SM CLR M03/M05 A3008 RMK AO2
TAF
KMKE 
12nm NE 
220855Z 2209/2312 25005KT P6SM FEW060 FM221300 27008KT P6SM FEW250 FM230100 23006KT P6SM FEW250 FM230500 24008KT P6SM FEW250
KUES 
12nm N 
220520Z 2206/2306 23004KT P6SM SCT080 FM221300 27008KT P6SM SKC FM230000 25006KT P6SM SKC
KENW 
15nm SE 
220520Z 2206/2306 23004KT P6SM BKN080 FM221300 28008KT P6SM SKC FM222300 24008KT P6SM FEW250
NOTAMs
Click for the latest NOTAMs
NOTAMs are issued by the DoD/FAA and will open in a separate window not controlled by AirNav.

 

 
 

FBO, Fuel Providers, and Aircraft Ground Support

  
 Business Name 
 
 Contact 
 
 Services / Description 
 
Fuel Prices
 
Comments
  
Guntly Aircraft Repair 262-895-2948
no information available

If you are affiliated with Guntly Aircraft Repair and would like to show here your services, contact info, web link, logo, and more, click here
100LL UL94
FS $5.00 --- 
SS --- $4.00 
 Updated 07-Apr-2021
 
   write
FS=Full service
SS=Self service
Update Fuel Prices
 

Would you like to see your business listed on this page?

 If your business provides an interesting product or service to pilots, flight crews, aircraft, or users of the Cindy Guntly Memorial Airport, you should consider listing it here.  To start the listing process, click on the button below
 
Add a business
 

Other Pages about Cindy Guntly Memorial Airport

Page from the Wisconsin airport directory (PDF)
 
Update a link
 
Copyright © AirNav, LLC. All rights reserved. Privacy Policy  Contact